Weather History for KBNO - October, 2013

Change the Weather History Date:

Sunday, October 27, 2013

  Actual Average Record
Temperature  
Mean Temperature 38 °F 41 °F  
Max Temperature 58 °F 56 °F 79 °F (2003)
Min Temperature 17 °F 26 °F 11 °F (2002)
Degree Days  
Heating Degree Days 27 24  
Month to date heating degree days 606 531  
Since 1 July heating degree days 898 950  
Cooling Degree Days 0 0  
Month to date cooling degree days 0 0  
Year to date cooling degree days 372 215  
Moisture  
Dew Point 27 °F    
Average Humidity 60    
Maximum Humidity 84    
Minimum Humidity 35    
Precipitation  
Precipitation 0.01 in 0.03 in 0.47 in (1961)
Month to date precipitation 0.05 0.65  
Year to date precipitation 5.98 8.07  
Sea Level Pressure  
Sea Level Pressure 29.81 in    
Wind  
Wind Speed 8 mph (WNW)    
Max Wind Speed 35 mph    
Max Gust Speed 43 mph    
Visibility 10 miles    
Events Rain    
T = Trace of Precipitation, MM = Missing Value Source: NWS Daily Summary

Daily Weather History Graph

Daily Weather History Graph

Search for Another Location

Airport or City:

Trip Planner

Search our weather history database for the weather conditions in past years. The results will help you decide how hot, cold, wet, or windy it might be!

Date:

Astronomy

Oct. 27, 2013 Rise Set
Actual Time 7:25 AM PDT 5:53 PM PDT
Civil Twilight 6:55 AM PDT 6:22 PM PDT
Nautical Twilight 6:22 AM PDT 6:56 PM PDT
Astronomical Twilight 5:49 AM PDT 7:29 PM PDT
Moon 12:15 AM PDT (10/27) 2:16 PM PDT (10/27)
Length of Visible Light 11h 26m
Length of Day
10h 27m
Last Quarter, 42% of the Moon is Illuminated
Oct 27
Last Quarter
Nov 3
New
Nov 9
First Quarter
Nov 17
Full
Nov 25
Last Quarter

Hourly Weather History & Observations

Time (PDT) Temp. Windchill Dew Point Humidity Pressure Visibility Wind Dir Wind Speed Gust Speed Precip Events Conditions
12:53 AM 30.0 °F - 21.0 °F 69% 30.10 in 10.0 mi Calm Calm - N/A   Clear
1:53 AM 30.0 °F 25.2 °F 21.0 °F 69% 30.08 in 10.0 mi WNW 4.6 mph - N/A   Clear
2:53 AM 32.0 °F 27.5 °F 21.9 °F 66% 30.05 in 10.0 mi West 4.6 mph - N/A   Clear
3:53 AM 28.0 °F 20.8 °F 19.9 °F 72% 30.04 in 10.0 mi West 6.9 mph - N/A   Clear
4:53 AM 26.1 °F 21.9 °F 19.0 °F 75% 30.01 in 10.0 mi West 3.5 mph - N/A   Clear
5:53 AM 25.0 °F 20.7 °F 19.0 °F 78% 30.00 in 10.0 mi West 3.5 mph - N/A   Clear
6:53 AM 21.9 °F - 18.0 °F 85% 30.00 in 10.0 mi Calm Calm - N/A   Clear
7:53 AM 21.9 °F - 16.0 °F 78% 30.01 in 10.0 mi Calm Calm - N/A   Clear
8:53 AM 32.0 °F - 19.9 °F 61% 29.96 in 10.0 mi Calm Calm - N/A   Clear
9:53 AM 37.9 °F 34.4 °F 24.1 °F 57% 29.87 in 10.0 mi ESE 4.6 mph - N/A   Clear
10:53 AM 48.9 °F - 27.0 °F 43% 29.81 in 10.0 mi North 5.8 mph - N/A   Clear
11:53 AM 51.1 °F - 30.9 °F 46% 29.75 in 10.0 mi NNW 3.5 mph - N/A   Mostly Cloudy
12:53 PM 53.1 °F - 30.9 °F 43% 29.70 in 10.0 mi NNW 4.6 mph - N/A   Overcast
1:53 PM 55.0 °F - 28.9 °F 37% 29.64 in 10.0 mi Calm Calm - N/A   Mostly Cloudy
2:53 PM 45.0 °F 35.2 °F 30.9 °F 58% 29.68 in 10.0 mi WNW 29.9 mph 41.4 mph N/A   Overcast
3:53 PM 41.0 °F 31.9 °F 30.9 °F 67% 29.72 in 10.0 mi West 19.6 mph 26.5 mph N/A   Overcast
4:53 PM 41.0 °F 33.5 °F 30.9 °F 67% 29.70 in 10.0 mi NW 13.8 mph - 0.00 in   Overcast
5:53 PM 41.0 °F 33.1 °F 32.0 °F 70% 29.72 in 10.0 mi WNW 15.0 mph - N/A   Overcast
6:53 PM 39.9 °F 35.1 °F 33.1 °F 77% 29.71 in 10.0 mi NW 6.9 mph - 0.00 in   Overcast
7:51 PM 39.2 °F 32.5 °F 33.8 °F 81% 29.65 in 10.0 mi WNW 10.4 mph - N/A   Overcast
7:53 PM 39.9 °F 33.9 °F 33.1 °F 77% 29.70 in 10.0 mi NW 9.2 mph - N/A   Overcast
8:53 PM 37.9 °F 29.6 °F 35.1 °F 89% 29.67 in 10.0 mi NW 13.8 mph - 0.00 in Rain Light Rain
9:53 PM 39.0 °F 31.8 °F 34.0 °F 82% 29.65 in 10.0 mi WNW 11.5 mph - 0.01 in   Overcast
10:53 PM 39.0 °F 30.6 °F 34.0 °F 82% 29.61 in 10.0 mi NW 15.0 mph - N/A   Mostly Cloudy
11:53 PM 39.0 °F 31.0 °F 34.0 °F 82% 29.60 in 10.0 mi WNW 13.8 mph - N/A   Overcast